Weather in Lopatino

Russia / Ryazan Oblast     53°50′50″N   39°27′56″E
temp.,
°C
wind,
m/s
gust,
m/s
humid.,
%
clouds,
%
prec.,
mm/h
press.,
hPa
HPBL,
m
1 march, mon
mon100:00−4nne2396100 0.1 1020100
03:00−5nne2296100 0.1 102270
06:00−9nne229695 0.0 102423
09:00−9n229454 0.0 102654
12:00−5w239017 0.0 1026250
15:00−3wsw479343 0.0 1025345
18:00−2w6109293 0.0 1023610
21:00−3wsw6129296 0.0 1021372
2 march, tue
tue200:00−1wsw61293100 0.0 1019503
03:00+1w61393100 0.0 1016582
06:00+1w71394100 0.0 1013646
09:00+1w71396100 0.0 1011609
12:00+1wnw613100100 0.2 1009577
15:00+1wnw51199100 0.4 1009589
18:00−1nw41091100 0.1 1009350
21:00−2nw4108998 0.2 1010304
3 march, wed
wed300:00−2nw61292100 0.1 1011504
03:00−3nw71492100 0.2 1012669
06:00−5nw7149096 0.1 1013713
09:00−5nw8148996 0.1 1015798
12:00−4nnw7138286 0.0 1016813
15:00−1nw6108663 0.1 10161048
18:00−2wnw51190100 0.1 1015671
21:00−2wnw51191100 0.1 1016633
4 march, thu
thu400:00−2w61193100 0.1 1015546
03:00−4w6129291 0.1 1014383
06:00−4wsw61389100 0.0 1011422
09:00−2wsw8169097 0.0 1008469
12:00+1wsw101884100 0.0 1005834
15:00+1wsw91680100 0.0 1003919
18:000wsw8178296 0.0 1000804
21:00+1w8149798 0.1 1001865
5 march, fri
fri500:00−1wnw7139698 0.2 1002612
03:00−5nw489198 0.3 1005192
06:00−8nw349460 0.0 100872
09:00−7nw239554 0.0 1010106
12:00−4nw228856 0.0 1011313
15:00−3nw118577 0.0 1012411
18:00−6nne1192100 0.0 101321
21:00−6ese129399 0.0 101421